Regional Weather Roundup
Issued by NWS

Home | Current Version | Previous Version | Text Only | Print | Product List | Glossary On
Versions: 1 2 3 4 5 6 7 8 9 10 11 12 13 14 15 16 17 18 19 20 21 22 23 24 25 26 27 28 29 30 31 32 33 34 35 36 37 38 39 40 41 42 43 44 45 46 47 48 49 50
000
ASUS43 KDMX 200407
RWRIA

WEATHER ROUNDUP FOR IOWA
NATIONAL WEATHER SERVICE DES MOINES IA
1100 PM CDT FRI SEP 19 2014

NOTE: "FAIR" INDICATES FEW OR NO CLOUDS BELOW 12,000 FEET WITH NO
SIGNIFICANT WEATHER AND/OR OBSTRUCTIONS TO VISIBILITY.

* - THESE STATIONS ARE NOT NWS STATIONS...THUS NOT UNDER NWS
QUALITY CONTROL.  THEY ALSO DO NOT REPORT WEATHER SUCH
AS PRECIPITATION OR FOG.

IAZ001>003-012>014-020>022-031>034-043>046-200500-
   NORTHWEST IOWA

CITY           SKY/WX    TMP DP  RH WIND       PRES   REMARKS
CARROLL *      CLEAR     70  68  94 SW15G22   29.78F
CHEROKEE *     RAIN      73  70  88 NW12G21   29.75R
DENISON *      CLEAR     72  70  94 S16G28    29.77S
LE MARS *      LGT RAIN  68  64  88 VRB6      29.78R
ORANGE CITY *  LGT RAIN  72  66  83 SW10G21   29.76R
SHELDON *      CLOUDY    68  66  94 SW7G14    29.76F
SIOUX CITY     CLOUDY    77  67  71 NW17G26   29.77R
SPENCER        TSTM      65  64  97 N15       29.81R FOG
STORM LAKE *   CLEAR     72  72 100 S16G25    29.74F
$$

IAZ055>058-069>071-079>083-090>094-200500-
   SOUTHWEST IOWA

CITY           SKY/WX    TMP DP  RH WIND       PRES   REMARKS
ATLANTIC *     CLEAR     72  68  88 S15G22    29.83R
AUDUBON *      CLEAR     70  63  78 S14G23    29.83R
CLARINDA *     CLEAR     70  68  94 S12       29.89S
COUNCIL BLFS *   N/A     73  72  94 S17G25    29.82R
CRESTON *      CLEAR     68  66  94 S17       29.88F FOG
HARLAN  *      CLEAR     72  70  94 S17G24    29.86R
LAMONI         CLEAR     68  65  90 S16G23    29.90F
RED OAK *      CLEAR     72  68  88 S17G23    29.84F
SHENANDOAH *   CLEAR     72  68  88 S13G21    29.86S
$$

IAZ047>049-059>061-072>074-084-200500-
   CENTRAL IOWA

CITY           SKY/WX    TMP DP  RH WIND       PRES   REMARKS
AMES           PTCLDY    69  66  90 S12       29.83F
ANKENY *       CLEAR     70  66  88 S15G21    29.83F
CHARITON *     CLEAR     68  64  88 S17       29.88F
DES MOINES     PTCLDY    70  66  87 S16       29.83F
GRINNELL*      CLEAR     66  61  82 S12G17    29.86F
KNOXVILLE *    CLEAR     68  63  83 S13       29.86F
MARSHALLTOWN   CLEAR     67  63  87 S13       29.83F
PELLA *        CLEAR     68  63  83 S9        29.88F
PERRY *          N/A     69  67  92 S12       29.82S FOG
$$

IAZ004>006-015-016-023>025-035-036-200500-
   NORTH CENTRAL IOWA

CITY           SKY/WX    TMP DP  RH WIND       PRES   REMARKS
ALGONA *       MOCLDY    70  66  88 S16G25    29.76R
CLARION *        N/A     70  68  94 S20G31    29.76F
ESTHERVILLE    HVY RAIN  68  67  96 NW10G24   29.81R FOG
FORT DODGE *   CLOUDY    70  64  83 S14G24    29.78F
MASON CITY     CLOUDY    70  66  87 S20G26    29.76F
FOREST CITY *  CLOUDY    70  66  88 S17G30    29.74F
IOWA FALLS *     N/A     68  64  88 S16       29.81F
$$

IAZ007>011-017>019-026>030-037>042-050>054-066-200500-
   NORTHEAST IOWA

CITY           SKY/WX    TMP DP  RH WIND       PRES   REMARKS
CEDAR RAPIDS   CLEAR     65  59  81 S13       29.87F
CHARLES CITY * CLOUDY    68  63  83 S12G22    29.79F
CLINTON *      CLEAR     64  55  72 SW13      29.94R
DECORAH *      MOCLDY    66  61  82 S10G22    29.79F
DUBUQUE        CLEAR     64  56  75 S17       29.87F
MONTICELLO *   CLEAR     66  57  72 S8        29.88F
OELWEIN *      CLEAR     66  61  82 S14G23    29.84F
WATERLOO       CLEAR     67  61  81 S17       29.80F
$$

IAZ064-065-067-068-078-200500-
   EAST CENTRAL IOWA

CITY           SKY/WX    TMP DP  RH WIND       PRES   REMARKS
DAVENPORT      CLEAR     67  55  65 S18       29.92S
IOWA CITY      CLEAR     66  59  78 S8        29.91S
MT. PLEASANT * CLEAR     64  57  77 S8        29.94S
MUSCATINE *    CLEAR     66  57  72 S10       29.92S
QUAD CITIES    CLEAR     67  55  65 S14       29.92S
$$

IAZ062-063-075>077-085>089-095>099-200500-
   SOUTHEAST IOWA

CITY           SKY/WX    TMP DP  RH WIND       PRES   REMARKS
BURLINGTON     CLEAR     65  58  78 S9        29.95S
FAIRFIELD *    CLEAR     66  59  77 S9        29.92F
FORT MADISON * CLEAR     66  57  72 S8        29.96S
KEOKUK *       CLEAR     68  59  73 S9        29.95S
OSKALOOSA *      N/A     66  63  88 S13       29.89F
CENTERVILLE *  CLEAR     66  64  94 S10       29.93F
OTTUMWA        CLEAR     67  61  81 S10       29.89F
WASHINGTON *   CLEAR     66  61  82 S12       29.91F
$$

ABBREVIATIONS USED IN REMARKS
   TC - TEMPERATURES IN CELSIUS
  WCI - WIND CHILL INDEX
   HX - HEAT INDEX
  VSB - VISIBILITY
$$



USA.gov is the U.S. government's official web portal to all federal, state and local government web resources and services.